Terminal Aerodrome Forecast
Issued by NWS Grand Junction, CO

Home | Current Version | Previous Version | Text Only | Print | Product List | Glossary On
Versions: 1 2 3 4 5 6 7 8 9 10 11 12 13 14 15 16 17 18 19 20 21 22 23 24 25 26 27 28 29 30 31 32 33 34 35
000
FTUS45 KGJT 031120
TAFGJT
TAF
KGJT 031120Z 0312/0412 12008KT P6SM BKN200
     FM031400 12009KT P6SM VCSH BKN100
     FM032000 22008KT P6SM VCTS BKN100CB
     FM040200 14006KT P6SM BKN150
     FM040600 10009KT P6SM BKN150=

USA.gov is the U.S. government's official web portal to all federal, state and local government web resources and services.